This is the latest recevied weather packets stored in our database for station/object N7ZAP. If no packets are shown the sender has not sent any weather packets the latest 10 day(s).
| Time | Temp. | Humidity | Pressure | Rain* | Wind** | Luminosity | Snow |
|---|---|---|---|---|---|---|---|
| 1777130683 | 21.11° C | 17% | 1013.8 hPa | 0 mm | - | - | - |
| 1777130379 | 20° C | 17% | 1013.8 hPa | 0 mm | - | - | - |
| 1777130075 | 20° C | 17% | 1013.7 hPa | 0 mm | - | - | - |
| 1777129772 | 19.44° C | 17% | 1013.6 hPa | 0 mm | - | - | - |
| 1777129472 | 18.33° C | 18% | 1013.9 hPa | 0 mm | - | - | - |
| 1777129171 | 18.33° C | 18% | 1013.8 hPa | 0 mm | - | - | - |
| 1777128867 | 18.33° C | 19% | 1014 hPa | 0 mm | - | - | - |
| 1777128564 | 17.78° C | 19% | 1014 hPa | 0 mm | - | - | - |
| 1777128260 | 17.22° C | 20% | 1013.9 hPa | 0 mm | - | - | - |
| 1777127959 | 16.67° C | 21% | 1013.8 hPa | 0 mm | - | - | - |
| 1777127656 | 16.11° C | 21% | 1013.9 hPa | 0 mm | - | - | - |
| 1777127352 | 16.67° C | 20% | 1014 hPa | 0 mm | - | - | - |
| 1777127049 | 17.78° C | 19% | 1013.8 hPa | 0 mm | - | - | - |
| 1777126744 | 16.67° C | 21% | 1014.1 hPa | 0 mm | - | - | - |
| 1777126441 | 15.56° C | 21% | 1014.2 hPa | 0 mm | - | - | - |
| 1777126136 | 15° C | 24% | 1014.1 hPa | 0 mm | - | - | - |
| 1777125833 | 14.44° C | 22% | 1013.8 hPa | 0 mm | - | - | - |
| 1777125529 | 13.89° C | 22% | 1013.8 hPa | 0 mm | - | - | - |
| 1777125223 | 13.33° C | 22% | 1013.8 hPa | 0 mm | - | - | - |
| 1777124919 | 12.78° C | 23% | 1014 hPa | 0 mm | - | - | - |
| 1777124617 | 12.22° C | 23% | 1013.9 hPa | 0 mm | - | - | - |
| 1777124312 | 12.22° C | 26% | 1013.9 hPa | 0 mm | - | - | - |
| 1777124009 | 11.67° C | 22% | 1013.8 hPa | 0 mm | - | - | - |
| 1777123705 | 11.67° C | 23% | 1013.7 hPa | 0 mm | - | - | - |
| 1777123401 | 11.11° C | 25% | 1013.6 hPa | 0 mm | - | - | - |
* Rain latest hour (hover to see other rain measurements)
** Current wind speed in m/s (hover to see current wind gust speed)